• In Spain
  • List of Countries
  • For 7 days
  • Water Temperature
  • Satellite Maps
  • Weather Map
  • Weather Widgets
  • user-avatar
    Login

    Hourly Weather Mishkovo

    Today, 19 April, Thursday

    Time Temperature Precipitation Wind Pressure Humidity
    00:00 +6°C° 0.3 mm 4 mps 737 mmHg 94%
    01:00 +6°C° 0.3 mm 4 mps 737 mmHg 94%
    02:00 +7°C° 0 mm 3 mps 737 mmHg 93%
    03:00 +7°C° 0.5 mm 3 mps 737 mmHg 93%
    04:00 +6°C° 0.5 mm 4 mps 737 mmHg 93%
    05:00 +5°C° 0.5 mm 4 mps 737 mmHg 94%
    06:00 +5°C° 0.7 mm 4 mps 737 mmHg 93%
    07:00 +5°C° 0.7 mm 4 mps 737 mmHg 93%
    08:00 +5°C° 0.7 mm 4 mps 737 mmHg 93%
    09:00 +5°C° 0.6 mm 4 mps 738 mmHg 92%
    10:00 +6°C° 0.6 mm 4 mps 738 mmHg 91%
    11:00 +6°C° 0.6 mm 4 mps 738 mmHg 91%
    12:00 +7°C° 0.2 mm 4 mps 738 mmHg 88%
    13:00 +8°C° 0.2 mm 4 mps 738 mmHg 86%
    14:00 +8°C° 0.2 mm 4 mps 738 mmHg 83%
    15:00 +10°C° 0 mm 4 mps 738 mmHg 79%
    16:00 +10°C° 0 mm 4 mps 739 mmHg 75%
    17:00 +11°C° 0 mm 4 mps 739 mmHg 71%
    18:00 +10°C° 0 mm 4 mps 739 mmHg 74%
    19:00 +9°C° 0 mm 3 mps 740 mmHg 77%
    20:00 +8°C° 0 mm 3 mps 740 mmHg 81%
    21:00 +7°C° 0 mm 3 mps 741 mmHg 83%
    22:00 +5°C° 0 mm 3 mps 741 mmHg 85%
    23:00 +5°C° 0 mm 3 mps 741 mmHg 87%

    Tomorrow, 20 April, Friday

    Time Temperature Precipitation Wind Pressure Humidity
    00:00 +5°C° 0 mm 3 mps 742 mmHg 90%
    01:00 +4°C° 0 mm 3 mps 742 mmHg 93%
    02:00 +4°C° 0 mm 3 mps 742 mmHg 95%
    03:00 +4°C° 0 mm 3 mps 742 mmHg 95%
    04:00 +4°C° 0 mm 3 mps 742 mmHg 95%
    05:00 +4°C° 0 mm 3 mps 742 mmHg 94%
    06:00 +4°C° 0 mm 3 mps 743 mmHg 92%
    07:00 +5°C° 0 mm 3 mps 743 mmHg 89%
    08:00 +5°C° 0 mm 3 mps 743 mmHg 87%
    09:00 +7°C° 0 mm 3 mps 743 mmHg 80%
    10:00 +9°C° 0 mm 3 mps 743 mmHg 73%
    11:00 +10°C° 0 mm 2 mps 743 mmHg 67%
    12:00 +10°C° 0 mm 2 mps 743 mmHg 64%
    13:00 +12°C° 0 mm 2 mps 743 mmHg 61%
    14:00 +12°C° 0 mm 2 mps 743 mmHg 58%
    15:00 +12°C° 0 mm 2 mps 742 mmHg 59%
    16:00 +12°C° 0 mm 2 mps 742 mmHg 61%
    17:00 +12°C° 0 mm 2 mps 741 mmHg 62%
    18:00 +10°C° 0 mm 2 mps 741 mmHg 69%
    19:00 +9°C° 0 mm 2 mps 740 mmHg 75%
    20:00 +7°C° 0 mm 2 mps 740 mmHg 82%
    21:00 +7°C° 0 mm 3 mps 739 mmHg 81%
    22:00 +8°C° 0 mm 3 mps 738 mmHg 81%
    23:00 +7°C° 0 mm 4 mps 737 mmHg 80%

    Day after tomorrow, 21 April, Saturday

    Time Temperature Precipitation Wind Pressure Humidity
    00:00 +7°C° 0 mm 4 mps 736 mmHg 81%
    01:00 +7°C° 0 mm 4 mps 735 mmHg 82%
    02:00 +8°C° 0 mm 4 mps 734 mmHg 83%
    03:00 +8°C° 0 mm 5 mps 733 mmHg 86%
    04:00 +8°C° 0 mm 5 mps 732 mmHg 88%
    05:00 +8°C° 0 mm 5 mps 731 mmHg 91%
    06:00 +8°C° 0.2 mm 5 mps 730 mmHg 87%
    07:00 +9°C° 0.2 mm 5 mps 729 mmHg 84%
    08:00 +10°C° 0.2 mm 6 mps 728 mmHg 81%
    09:00 +10°C° 0.2 mm 6 mps 727 mmHg 81%
    10:00 +10°C° 0.2 mm 6 mps 727 mmHg 82%
    11:00 +10°C° 0.2 mm 7 mps 726 mmHg 83%
    12:00 +10°C° 0.2 mm 7 mps 726 mmHg 78%
    13:00 +9°C° 0.2 mm 8 mps 726 mmHg 74%
    14:00 +9°C° 0.2 mm 8 mps 726 mmHg 70%
    15:00 +7°C° 0.1 mm 8 mps 726 mmHg 67%
    16:00 +7°C° 0.1 mm 8 mps 727 mmHg 65%
    17:00 +8°C° 0.1 mm 7 mps 727 mmHg 62%
    18:00 +6°C° 0.1 mm 7 mps 728 mmHg 67%
    19:00 +5°C° 0.1 mm 6 mps 728 mmHg 72%
    20:00 +5°C° 0.1 mm 5 mps 729 mmHg 77%
    21:00 +5°C° 0 mm 5 mps 729 mmHg 78%
    22:00 +5°C° 0 mm 5 mps 729 mmHg 80%
    23:00 +3°C° 0 mm 5 mps 730 mmHg 81%

    22 April, Sunday

    Time Temperature Precipitation Wind Pressure Humidity
    00:00 +3°C° 0 mm 5 mps 730 mmHg 82%
    01:00 +3°C° 0 mm 4 mps 730 mmHg 83%
    02:00 +3°C° 0 mm 4 mps 731 mmHg 85%
    03:00 +3°C° 0.1 mm 4 mps 731 mmHg 85%
    04:00 +1°C° 0.1 mm 4 mps 731 mmHg 86%
    05:00 +2°C° 0.1 mm 3 mps 731 mmHg 87%
    06:00 +2°C° 0.1 mm 3 mps 732 mmHg 83%
    07:00 +3°C° 0.1 mm 3 mps 732 mmHg 79%
    08:00 +4°C° 0.1 mm 3 mps 732 mmHg 75%
    09:00 +4°C° 0.1 mm 3 mps 732 mmHg 73%
    10:00 +5°C° 0.1 mm 3 mps 732 mmHg 70%
    11:00 +7°C° 0.1 mm 3 mps 733 mmHg 68%
    12:00 +7°C° 0.2 mm 3 mps 733 mmHg 68%
    13:00 +6°C° 0.2 mm 4 mps 733 mmHg 68%
    14:00 +6°C° 0.2 mm 4 mps 733 mmHg 69%
    15:00 +7°C° 0.1 mm 3 mps 733 mmHg 69%
    16:00 +7°C° 0.1 mm 3 mps 733 mmHg 68%
    17:00 +7°C° 0.1 mm 3 mps 734 mmHg 68%
    18:00 +6°C° 0 mm 2 mps 734 mmHg 72%
    19:00 +5°C° 0 mm 2 mps 734 mmHg 75%
    20:00 +4°C° 0 mm 2 mps 735 mmHg 79%
    21:00 +3°C° 0 mm 2 mps 735 mmHg 79%
    22:00 +3°C° 0 mm 1 mps 735 mmHg 80%
    23:00 +2°C° 0 mm 1 mps 736 mmHg 80%

    23 April, Monday

    Time Temperature Precipitation Wind Pressure Humidity
    00:00 +1°C° 0 mm 1 mps 736 mmHg 80%
    01:00 +1°C° 0 mm 1 mps 736 mmHg 80%
    02:00 0°C° 0 mm 1 mps 737 mmHg 80%
    03:00 0°C° 0 mm 1 mps 737 mmHg 80%
    04:00 0°C° 0 mm 1 mps 737 mmHg 79%
    05:00 0°C° 0 mm 1 mps 737 mmHg 79%
    06:00 +2°C° 0 mm 1 mps 738 mmHg 70%
    07:00 +3°C° 0 mm 1 mps 738 mmHg 61%
    08:00 +5°C° 0 mm 1 mps 738 mmHg 52%
    09:00 +7°C° 0 mm 1 mps 738 mmHg 47%
    10:00 +8°C° 0 mm 1 mps 738 mmHg 42%
    11:00 +9°C° 0 mm 0 mps 739 mmHg 36%
    12:00 +10°C° 0 mm 1 mps 738 mmHg 35%
    13:00 +11°C° 0 mm 1 mps 738 mmHg 34%
    14:00 +11°C° 0 mm 1 mps 738 mmHg 33%
    15:00 +11°C° 0 mm 1 mps 738 mmHg 33%
    16:00 +10°C° 0 mm 1 mps 737 mmHg 34%
    17:00 +9°C° 0 mm 0 mps 737 mmHg 35%
    18:00 +8°C° 0 mm 1 mps 737 mmHg 41%
    19:00 +6°C° 0 mm 1 mps 737 mmHg 47%
    20:00 +4°C° 0 mm 1 mps 737 mmHg 52%
    21:00 +4°C° 0 mm 1 mps 737 mmHg 56%
    22:00 +3°C° 0 mm 1 mps 737 mmHg 59%
    23:00 +3°C° 0 mm 1 mps 737 mmHg 63%

    24 April, Tuesday

    Time Temperature Precipitation Wind Pressure Humidity
    00:00 +1°C° 0 mm 2 mps 737 mmHg 65%
    01:00 +1°C° 0 mm 2 mps 736 mmHg 68%
    02:00 +1°C° 0 mm 2 mps 736 mmHg 70%
    03:00 +1°C° 0 mm 2 mps 736 mmHg 72%
    04:00 +1°C° 0 mm 2 mps 736 mmHg 74%
    05:00 +1°C° 0 mm 2 mps 735 mmHg 76%
    06:00 +2°C° 0 mm 3 mps 735 mmHg 71%
    07:00 +3°C° 0 mm 3 mps 735 mmHg 65%
    08:00 +5°C° 0 mm 3 mps 735 mmHg 60%
    09:00 +7°C° 0 mm 4 mps 734 mmHg 57%
    10:00 +8°C° 0 mm 4 mps 734 mmHg 55%
    11:00 +9°C° 0 mm 5 mps 734 mmHg 53%
    12:00 +9°C° 0.1 mm 5 mps 733 mmHg 55%
    13:00 +9°C° 0.1 mm 5 mps 733 mmHg 57%
    14:00 +10°C° 0.1 mm 4 mps 733 mmHg 59%
    15:00 +8°C° 0.3 mm 4 mps 732 mmHg 65%
    16:00 +8°C° 0.3 mm 4 mps 732 mmHg 71%
    17:00 +8°C° 0.3 mm 3 mps 732 mmHg 77%
    18:00 +7°C° 0.7 mm 3 mps 731 mmHg 81%
    19:00 +5°C° 0.7 mm 3 mps 731 mmHg 84%
    20:00 +5°C° 0.7 mm 3 mps 731 mmHg 88%
    21:00 +5°C° 0.8 mm 3 mps 730 mmHg 89%
    22:00 +4°C° 0.8 mm 3 mps 730 mmHg 90%
    23:00 +4°C° 0.8 mm 3 mps 730 mmHg 91%
    Show more